Weather History for EHAM - November, 2013

Change the Weather History Date:

Wednesday, November 6, 2013

  Actual Average Record
Temperature  
Mean Temperature 52 °F -  
Max Temperature 59 °F 47 °F 59 °F (2013)
Min Temperature 45 °F 38 °F 35 °F (2012)
Degree Days  
Heating Degree Days 13    
Growing Degree Days 2 (Base 50)    
Moisture  
Dew Point 46 °F    
Average Humidity 82    
Maximum Humidity 100    
Minimum Humidity 66    
Precipitation  
Precipitation 0.04 in - - ()
Sea Level Pressure  
Sea Level Pressure 29.47 in    
Wind  
Wind Speed 14 mph ()    
Max Wind Speed 29 mph    
Max Gust Speed 41 mph    
Visibility 6.5 miles    
Events Rain    
Averages and records for this station are not official NWS values.
T = Trace of Precipitation, MM = Missing Value Source: Averaged Metar Reports

Daily Weather History Graph

Daily Weather History Graph

Search for Another Location

Airport or City:

Trip Planner

Search our weather history database for the weather conditions in past years. The results will help you decide how hot, cold, wet, or windy it might be!

Date:

Astronomy

Nov. 06, 2013 Rise Set
Actual Time 7:45 AM CET 5:02 PM CET
Civil Twilight 7:09 AM CET 5:38 PM CET
Nautical Twilight 6:28 AM CET 6:19 PM CET
Astronomical Twilight 5:48 AM CET 6:59 PM CET
Moon 10:57 AM CET (11/6) 7:38 PM CET (11/6)
Length of Visible Light 10h 29m
Length of Day
9h 16m
Waxing Crescent, 11% of the Moon is Illuminated
Nov 6
Waxing Crescent
Nov 10
First Quarter
Nov 17
Full
Nov 25
Last Quarter
Dec 3
New

Hourly Weather History & Observations

Time (CET) Temp. Windchill Dew Point Humidity Pressure Visibility Wind Dir Wind Speed Gust Speed Precip Events Conditions
12:25 AM 50.0 °F - 41.0 °F 71% 29.33 in 6.2 mi WNW 18.4 mph - N/A Rain Light Rain Showers
12:55 AM 50.0 °F - 42.8 °F 76% 29.33 in 6.2 mi West 17.3 mph - N/A Rain Light Rain Showers
1:00 AM 48 °F - 43 °F 77% 29.36 in 12 mi West 20.1 mph - - Rain Light Rain Showers
1:25 AM 46.4 °F 38.1 °F 42.8 °F 87% 29.36 in 5.6 mi West 24.2 mph - N/A Rain Light Rain Showers
1:55 AM 46.4 °F 39.8 °F 42.8 °F 87% 29.36 in 6.2 mi West 16.1 mph - N/A   Scattered Clouds
2:25 AM 48.2 °F - 44.6 °F 87% 29.39 in 6.2 mi West 12.7 mph - N/A   Scattered Clouds
2:55 AM 48.2 °F - 42.8 °F 82% 29.39 in 6.2 mi West 15.0 mph 26.5 mph N/A   Scattered Clouds
3:25 AM 48.2 °F - 42.8 °F 82% 29.39 in 6.2 mi West 16.1 mph - N/A   Scattered Clouds
3:55 AM 48.2 °F - 41.0 °F 76% 29.42 in 6.2 mi West 19.6 mph - N/A   Partly Cloudy
4:00 AM 48 °F - 42 °F 71% 29.44 in 13 mi West 20.1 mph - -   Partly Cloudy
4:25 AM 48.2 °F - 41.0 °F 76% 29.42 in 6.2 mi West 18.4 mph - N/A   Scattered Clouds
4:55 AM 48.2 °F - 41.0 °F 76% 29.44 in 6.2 mi West 17.3 mph - N/A   Scattered Clouds
5:25 AM 48.2 °F - 41.0 °F 76% 29.44 in 6.2 mi West 17.3 mph - N/A   Scattered Clouds
5:55 AM 48.2 °F - 41.0 °F 76% 29.44 in 6.2 mi West 15.0 mph - N/A   Scattered Clouds
6:25 AM 48.2 °F - 41.0 °F 76% 29.44 in 6.2 mi West 13.8 mph - N/A   Partly Cloudy
6:55 AM 48.2 °F - 42.8 °F 82% 29.44 in 6.2 mi West 13.8 mph - N/A   Scattered Clouds
7:00 AM 48 °F - 42 °F 75% 29.47 in 9 mi West 13.4 mph - - Rain Light Rain Showers
7:25 AM 48.2 °F - 42.8 °F 82% 29.44 in 6.2 mi West 11.5 mph - N/A   Scattered Clouds
7:55 AM 50.0 °F - 42.8 °F 76% 29.47 in 6.2 mi West 13.8 mph - N/A   Scattered Clouds
8:25 AM 50.0 °F - 42.8 °F 76% 29.47 in 6.2 mi WSW 13.8 mph - N/A   Partly Cloudy
8:55 AM 50.0 °F - 42.8 °F 76% 29.47 in 6.2 mi West 15.0 mph - N/A   Partly Cloudy
9:25 AM 50.0 °F - 42.8 °F 76% 29.50 in 6.2 mi West 15.0 mph - N/A   Scattered Clouds
9:55 AM 51.8 °F - 44.6 °F 76% 29.50 in 6.2 mi West 12.7 mph - N/A   Scattered Clouds
10:00 AM 52 °F - 44 °F 66% 29.52 in 14 mi West 13.4 mph - -   Overcast
10:25 AM 51.8 °F - 44.6 °F 76% 29.50 in 6.2 mi West 12.7 mph - N/A   Scattered Clouds
10:55 AM 51.8 °F - 44.6 °F 76% 29.50 in 6.2 mi West 13.8 mph - N/A   Scattered Clouds
11:25 AM 53.6 °F - 44.6 °F 72% 29.50 in 6.2 mi West 12.7 mph - N/A   Partly Cloudy
11:55 AM 53.6 °F - 44.6 °F 72% 29.50 in 6.2 mi West 12.7 mph - N/A   Scattered Clouds
12:25 PM 53.6 °F - 44.6 °F 72% 29.50 in 6.2 mi West 12.7 mph - N/A   Scattered Clouds
12:55 PM 53.6 °F - 46.4 °F 77% 29.50 in 6.2 mi West 12.7 mph - N/A   Scattered Clouds
1:00 PM - - - % 29.54 in 14 mi West 13.4 mph - -   Partly Cloudy
1:25 PM 53.6 °F - 46.4 °F 77% 29.53 in 6.2 mi West 12.7 mph - N/A   Scattered Clouds
1:55 PM 53.6 °F - 46.4 °F 77% 29.53 in 6.2 mi West 9.2 mph - N/A   Mostly Cloudy
2:25 PM 53.6 °F - 46.4 °F 77% 29.53 in 6.2 mi West 12.7 mph - N/A   Partly Cloudy
2:55 PM 53.6 °F - 46.4 °F 77% 29.53 in 6.2 mi WSW 10.4 mph - N/A Rain Light Rain
3:25 PM 51.8 °F - 46.4 °F 82% 29.53 in 6.2 mi WSW 13.8 mph - N/A Rain Light Rain
3:55 PM 51.8 °F - 48.2 °F 88% 29.53 in 6.2 mi WSW 10.4 mph - N/A Rain Light Rain
4:00 PM 52 °F - 48 °F 80% 29.55 in 12 mi WSW 8.9 mph - - Rain Light Rain
4:25 PM 51.8 °F - 48.2 °F 88% 29.53 in 6.2 mi SW 8.1 mph - N/A Rain Light Rain
4:55 PM 51.8 °F - 48.2 °F 88% 29.53 in 6.2 mi SW 10.4 mph - N/A Rain Light Rain
5:25 PM 50.0 °F - 48.2 °F 94% 29.53 in 6.2 mi SSW 9.2 mph - N/A Rain Light Rain
5:55 PM 50.0 °F - 48.2 °F 94% 29.53 in 5.6 mi SSW 10.4 mph - N/A Rain Rain
6:25 PM 50.0 °F - 48.2 °F 94% 29.53 in - SSW 8.1 mph - N/A Rain Rain
6:55 PM 50.0 °F - 48.2 °F 94% 29.53 in 3.7 mi South 6.9 mph - N/A Rain Rain
7:00 PM 49 °F - 49 °F 98% 29.55 in 3 mi South 6.7 mph - - Rain Heavy Drizzle
7:25 PM 50.0 °F - 48.2 °F 94% 29.50 in 2.8 mi SSE 6.9 mph - N/A Rain Rain
7:55 PM 50.0 °F - 50.0 °F 100% 29.50 in 1.9 mi SSE 8.1 mph - N/A Rain Rain
8:25 PM 50.0 °F - 50.0 °F 100% 29.50 in 1.8 mi SSE 8.1 mph - N/A Rain Rain
8:55 PM 51.8 °F - 51.8 °F 100% 29.47 in 3.1 mi South 9.2 mph - N/A Rain Light Drizzle
9:25 PM 57.2 °F - 53.6 °F 88% 29.47 in 6.2 mi SW 20.7 mph - N/A   Mostly Cloudy
9:55 PM 57.2 °F - 53.6 °F 88% 29.47 in 6.2 mi SW 25.3 mph 36.8 mph N/A   Mostly Cloudy
10:00 PM 58 °F - 54 °F 83% 29.48 in 7 mi SW 26.8 mph - - Rain Drizzle
10:25 PM 57.2 °F - 53.6 °F 88% 29.44 in 6.2 mi SW 27.6 mph - N/A   Mostly Cloudy
10:55 PM 59.0 °F - 53.6 °F 82% 29.44 in 6.2 mi SW 28.8 mph 41.4 mph N/A Rain Light Rain
11:25 PM 59.0 °F - 53.6 °F 82% 29.44 in 5.6 mi SW 26.5 mph - N/A   Light Drizzle
11:55 PM 57.2 °F - 53.6 °F 88% 29.44 in 6.2 mi SW 28.8 mph - N/A   Mostly Cloudy